Weather History for Ishigakijima, Japan

Change the Weather History Date:

Wednesday, January 30, 2013

  Actual Average Record
Temperature  
Mean Temperature 66 °F -  
Max Temperature 73 °F 69 °F 76 °F (2014)
Min Temperature 60 °F 61 °F 55 °F (2007)
Growing Degree Days 16 (Base 50)    
Moisture  
Dew Point 53 °F    
Average Humidity 59    
Maximum Humidity 82    
Minimum Humidity 38    
Precipitation  
Precipitation 0.00 in - - ()
Sea Level Pressure  
Sea Level Pressure 30.22 in    
Wind  
Wind Speed 8 mph ()    
Max Wind Speed 14 mph    
Max Gust Speed -    
Visibility 8.0 miles    
Events      
Averages and records for this station are not official NWS values.
T = Trace of Precipitation, MM = Missing Value Source: Averaged Metar Reports

Daily Weather History Graph

Daily Weather History Graph

Search for Another Location

Airport:

Trip Planner

Search our weather history database for the weather conditions in past years. The results will help you decide how hot, cold, wet, or windy it might be!

Date:

Astronomy

Jan. 30, 2013 Rise Set
Actual Time 7:25 AM JST 6:27 PM JST
Civil Twilight 7:02 AM JST 6:51 PM JST
Nautical Twilight 6:34 AM JST 7:18 PM JST
Astronomical Twilight 6:07 AM JST 7:45 PM JST
Moon 9:20 PM JST (1/30) 9:00 AM JST (1/30)
Length of Visible Light 11h 49m
Length of Day
11h 01m
Waning Gibbous, 91% of the Moon is Illuminated
Jan 30
Waning Gibbous
Feb 3
Last Quarter
Feb 10
New
Feb 18
First Quarter
Feb 26
Full

Hourly Weather History & Observations

Time (JST) Temp. Dew Point Humidity Pressure Visibility Wind Dir Wind Speed Gust Speed Precip Events Conditions
12:00 AM 64 °F 55 °F 65% 30.21 in - WNW 3.5 mph - -  
3:00 AM 63 °F 55 °F 69% 30.20 in 19 mi North 6.9 mph - -   Partly Cloudy
6:00 AM 66 °F 55 °F 60% 30.22 in 19 mi North 11.5 mph - -   Scattered Clouds
6:00 AM 64.4 °F 55.4 °F 73% 30.21 in 6.2 mi North 10.4 mph - N/A   Partly Cloudy
7:00 AM 64.4 °F 53.6 °F 68% 30.21 in 6.2 mi North 11.5 mph - N/A   Partly Cloudy
8:00 AM 64.4 °F 55.4 °F 73% 30.21 in 6.2 mi North 9.2 mph - N/A   Partly Cloudy
9:00 AM 67 °F 53 °F 50% 30.27 in 9 mi NNE 11.5 mph - -   Mostly Cloudy
9:00 AM 68.0 °F 53.6 °F 60% 30.24 in 6.2 mi North 10.4 mph - N/A   Partly Cloudy
10:00 AM 68.0 °F 51.8 °F 56% 30.24 in 6.2 mi NNE 13.8 mph - N/A   Partly Cloudy
11:00 AM 69.8 °F 51.8 °F 53% 30.27 in 6.2 mi North 12.7 mph - N/A   Partly Cloudy
12:00 PM 70 °F 50 °F 38% 30.27 in 9 mi North 11.5 mph - -   Partly Cloudy
12:00 PM 71.6 °F 50.0 °F 46% 30.24 in 6.2 mi North 11.5 mph - N/A   Partly Cloudy
1:00 PM 69.8 °F 50.0 °F 49% 30.24 in 6.2 mi North 12.7 mph - N/A   Scattered Clouds
2:00 PM 69.8 °F 48.2 °F 46% 30.21 in 6.2 mi North 10.4 mph - N/A   Partly Cloudy
3:00 PM 71.6 °F 51.8 °F 50% 30.18 in 6.2 mi North 11.5 mph - N/A   Partly Cloudy
4:00 PM 69.8 °F 53.6 °F 56% 30.18 in 6.2 mi North 11.5 mph - N/A   Partly Cloudy
5:00 PM 69.8 °F 53.6 °F 56% 30.18 in 6.2 mi North 10.4 mph - N/A   Partly Cloudy
6:00 PM 68 °F 54 °F 52% 30.22 in 9 mi North 9.2 mph - -   Scattered Clouds
6:00 PM 68.0 °F 55.4 °F 64% 30.21 in 6.2 mi North 8.1 mph - N/A   Partly Cloudy
7:00 PM 62.6 °F 55.4 °F 77% 30.18 in 6.2 mi North 5.8 mph - N/A   Partly Cloudy
8:00 PM 60.8 °F 55.4 °F 82% 30.21 in 6.2 mi NNW 5.8 mph - N/A   Partly Cloudy
9:00 PM 65 °F 56 °F 65% 30.23 in 9 mi North 4.6 mph - -   Scattered Clouds